Other Surface Observations
Issued by NWS Upton, NY

Home | Current Version | Previous Version | Text Only | Print | Product List | Glossary On
Versions: 1 2 3 4 5 6 7 8 9 10 11 12 13 14 15 16 17 18 19 20 21 22 23 24 25 26 27 28 29 30 31 32 33 34 35 36 37 38 39 40 41 42 43 44 45 46 47 48 49 50
448
SXUS51 KOKX 170157
OSOOKX
NEW YORK CITY METROPOLITAN AREA WEATHER ROUNDUP
National Weather Service New York NY
900 PM EST SAT DEC 16 2017

CITY           SKY/WX    TMP DP  RH WIND       PRES   REMARKS
Central Park   CLOUDY    37  24  59 VRB5      30.17R WCI  33
LaGuardia APRT CLOUDY    38  26  62 NW10      30.15R WCI  31
Kennedy INTL   CLOUDY    37  27  67 N13       30.16R WCI  29
Newark Liberty CLOUDY    37  26  64 N7        30.16R WCI  32
Teterboro APRT CLOUDY    37  24  59 NW8       30.16R WCI  31
Bronx Bot Gard   N/A     36  25  64 NW8       30.17F WCI  29
Bronx Lehman C   N/A     36  25  64 NW8         N/A  WCI  29
Queens College   N/A     37  27  65 N10         N/A  WCI  30
Breezy Point     N/A     39 N/A N/A NW7         N/A  WCI  34
Brooklyn Coll    N/A     39  27  60 NW9         N/A  WCI  33
Staten Island    N/A     37  27  65 N6          N/A  WCI  33

>>>>>>>>>>>>>>>>>>>>>>>>>>>>>>>>> KEY <<<<<<<<<<<<<<<<<<<<<<<<<<<<<<<
> SKY/WX - SKY CONDITION/PRESENT    : R : WCI - WIND CHILL INDEX    <
>          WEATHER                  : E : VSB - VISIBILITY IN MILES <
> TMP    - TEMPERATURE IN DEG F     : M : HX  - HEAT INDEX          <
> DP     - DEW POINT TEMPERATURE    : A : TC  - TEMPERATURE IN      <
> RH     - RELATIVE HUMIDITY        : R :       CELSIUS             <
> WIND   - DIRECTION/SPEED (MPH)    : K : VRB - VARIABLE WIND  DIR  <
> PRES   - PRESSURE (IN HG)         : S :                           <
>>>>>>>>>>>>>>>>>>>>>>>>>>>>>>>>> KEY <<<<<<<<<<<<<<<<<<<<<<<<<<<<<<<




USA.gov is the U.S. government's official web portal to all federal, state and local government web resources and services.